Location: Claremont
(33.9858°S, 18.4575°E)
Time: 04:26:06
(UTC+00:00)

Cosmos 2082 - Pass Details

Date: 03 March 2021
Orbit: 835 x 854 km, 71.0° (Epoch: 19 April)

Event Time Altitude Azimuth Distance (km) Brightness Sun altitude
Rises 17:53:10 0° 341° (NNW) 3,384 6.9 -7.6°
Reaches altitude 10° 17:55:35 10° 340° (NNW) 2,460 6.2 -8.1°
Maximum altitude 18:01:15 89° 248° (WSW) 859 3.8 -9.3°
Drops below altitude 10° 18:07:02 10° 159° (SSE) 2,503 6.1 -10.4°
Sets 18:09:31 0° 159° (SSE) 3,448 6.8 -10.9°
